Sault Ste Marie, MI

3:46 AM EST on February 21, 2017 (GMT -0500)
Sault Ste Marie Municipal / Sanderson Field

Weather History for KANJ - October, 2012

Change the Weather History Date:

Thursday, October 11, 2012

  Actual Average Record
Temperature  
Mean Temperature 39 °F 47 °F  
Max Temperature 44 °F 55 °F 78 °F (1938)
Min Temperature 33 °F 39 °F 22 °F (1936)
Degree Days  
Heating Degree Days 26 18  
Month to date heating degree days 193 174  
Since 1 July heating degree days 521 575  
Cooling Degree Days 0 0  
Month to date cooling degree days 0 0  
Year to date cooling degree days 402 195  
Moisture  
Dew Point 31 °F    
Average Humidity 73    
Maximum Humidity 89    
Minimum Humidity 57    
Precipitation  
Precipitation 0.53 in 0.13 in 1.54 in (1897)
Month to date precipitation 2.00 1.42  
Year to date precipitation 20.98 24.41  
Snow  
Snow 4.40 in 0.10 in 4.40 in (2012)
Month to date snowfall 4.5 0.2  
Since 1 July snowfall 4.5 0.2  
Snow Depth T in    
Sea Level Pressure  
Sea Level Pressure 29.94 in    
Wind  
Wind Speed 8 mph (West)    
Max Wind Speed 26 mph    
Max Gust Speed 39 mph    
Visibility 6 miles    
Events Fog , Rain , Snow    
T = Trace of Precipitation, MM = Missing Value Source: NWS Daily Summary

Daily Weather History Graph

Daily Weather History Graph

Search for Another Location

Airport or City:

Trip Planner

Search our weather history database for the weather conditions in past years. The results will help you decide how hot, cold, wet, or windy it might be!

Date:

Astronomy

Oct. 11, 2012 Rise Set
Actual Time 7:50 AM EDT 6:57 PM EDT
Civil Twilight 7:19 AM EDT 7:27 PM EDT
Nautical Twilight 6:44 AM EDT 8:02 PM EDT
Astronomical Twilight 6:09 AM EDT 8:37 PM EDT
Moon 3:13 AM EDT (10/11) 4:44 PM EDT (10/11)
Length of Visible Light 12h 07m
Length of Day
11h 07m
Waning Crescent, 18% of the Moon is Illuminated
Oct 11
Waning Crescent
Oct 15
New
Oct 21
First Quarter
Oct 29
Full
Nov 6
Last Quarter

Hourly Weather History & Observations

Time (EDT) Temp. Windchill Dew Point Humidity Pressure Visibility Wind Dir Wind Speed Gust Speed Precip Events Conditions
12:55 AM 35.1 °F 26.4 °F 30.0 °F 82% 29.98 in 10.0 mi WSW 12.7 mph - 0.00 in   Overcast
1:55 AM 36.0 °F 28.5 °F 30.9 °F 82% 29.99 in 10.0 mi WSW 10.4 mph - 0.00 in   Partly Cloudy
2:55 AM 37.9 °F 30.0 °F 32.0 °F 79% 29.99 in 10.0 mi West 12.7 mph - N/A   Overcast
3:22 AM 36.0 °F 29.0 °F 30.9 °F 82% 29.98 in 9.0 mi West 9.2 mph - 0.00 in Rain Light Rain
3:31 AM 36.0 °F 30.3 °F 32.0 °F 86% 29.97 in 10.0 mi WNW 6.9 mph - 0.00 in Rain Light Rain
3:55 AM 37.0 °F 32.4 °F 32.0 °F 82% 29.98 in 10.0 mi WSW 5.8 mph - 0.00 in   Overcast
4:55 AM 36.0 °F - 30.0 °F 79% 29.98 in 10.0 mi Calm Calm - N/A   Overcast
5:55 AM 35.1 °F - 30.0 °F 82% 29.97 in 10.0 mi Calm Calm - N/A   Overcast
6:55 AM 35.1 °F 28.6 °F 28.9 °F 78% 29.96 in 10.0 mi South 8.1 mph - N/A   Overcast
7:30 AM 34.0 °F 29.8 °F 30.0 °F 85% 29.94 in 5.0 mi South 4.6 mph - 0.00 in Snow Light Snow
7:45 AM 34.0 °F 29.8 °F 30.0 °F 85% 29.93 in 2.0 mi South 4.6 mph - 0.00 in Snow Light Snow
7:55 AM 33.1 °F 28.7 °F 30.9 °F 92% 29.95 in 1.8 mi South 4.6 mph - 0.01 in Snow Light Snow
8:09 AM 33.1 °F 28.7 °F 30.9 °F 92% 29.93 in 1.2 mi South 4.6 mph - 0.02 in Snow Light Snow
8:33 AM 33.1 °F 28.7 °F 30.9 °F 92% 29.92 in 0.5 mi SSE 4.6 mph - 0.06 in Fog , Snow Snow
8:41 AM 33.1 °F 30.0 °F 30.9 °F 92% 29.92 in 0.8 mi Variable 3.5 mph - 0.07 in Snow Light Snow
8:55 AM 33.1 °F 28.7 °F 30.9 °F 92% 29.93 in 0.5 mi SSE 4.6 mph - 0.09 in Fog , Snow Snow
9:35 AM 33.1 °F 28.7 °F 30.9 °F 92% 29.90 in 0.8 mi ESE 4.6 mph - 0.07 in Snow Light Snow
9:55 AM 33.1 °F 26.9 °F 30.9 °F 92% 29.91 in 0.5 mi SE 6.9 mph - 0.09 in Fog , Snow Snow
10:47 AM 33.1 °F 28.7 °F 30.9 °F 92% 29.86 in 1.0 mi East 4.6 mph - 0.11 in Snow Light Snow
10:55 AM 33.1 °F 28.7 °F 30.9 °F 92% 29.86 in 0.8 mi East 4.6 mph - 0.11 in Snow Light Snow
11:21 AM 33.1 °F 30.0 °F 30.9 °F 92% 29.84 in 1.0 mi East 3.5 mph - 0.03 in Snow Light Snow
11:51 AM 33.8 °F - 30.2 °F 87% 29.83 in 0.8 mi Calm Calm - 0.05 in Snow Light Snow
11:55 AM 33.1 °F - 30.9 °F 92% 29.85 in 1.0 mi Calm Calm - 0.06 in Snow Light Snow
12:13 PM 33.1 °F - 30.9 °F 92% 29.83 in 1.2 mi Calm Calm - 0.01 in Snow Light Snow
12:31 PM 33.1 °F - 30.9 °F 92% 29.82 in 3.0 mi Calm Calm - 0.02 in Snow Light Snow
12:41 PM 34.0 °F - 30.9 °F 89% 29.83 in 4.0 mi Calm Calm - 0.03 in Rain Light Rain
12:55 PM 34.0 °F - 32.0 °F 92% 29.84 in 7.0 mi Calm Calm - 0.03 in Rain Light Rain
1:40 PM 37.0 °F - 33.1 °F 86% 29.83 in 10.0 mi Calm Calm - 0.00 in   Mostly Cloudy
1:55 PM 36.0 °F 30.3 °F 33.1 °F 89% 29.84 in 8.0 mi West 6.9 mph - 0.00 in Rain Light Rain
2:07 PM 37.0 °F 32.4 °F 35.1 °F 93% 29.82 in 10.0 mi West 5.8 mph - 0.00 in   Overcast
2:55 PM 41.0 °F 33.5 °F 36.0 °F 82% 29.84 in 3.0 mi WNW 13.8 mph 24.2 mph 0.03 in Rain Heavy Rain
3:03 PM 39.9 °F 31.4 °F 35.1 °F 83% 29.83 in 2.0 mi WNW 16.1 mph 32.2 mph 0.03 in Rain Heavy Rain
3:14 PM 42.1 °F 35.2 °F 35.1 °F 76% 29.83 in 10.0 mi WNW 12.7 mph 25.3 mph 0.05 in   Overcast
3:55 PM 43.0 °F 36.0 °F 34.0 °F 71% 29.88 in 10.0 mi WNW 13.8 mph 27.6 mph 0.05 in   Scattered Clouds
4:55 PM 44.1 °F 36.8 °F 32.0 °F 63% 29.90 in 10.0 mi WNW 16.1 mph 31.1 mph N/A   Partly Cloudy
5:55 PM 43.0 °F 34.2 °F 28.9 °F 58% 29.93 in 10.0 mi West 20.7 mph 31.1 mph 0.00 in   Partly Cloudy
6:55 PM 41.0 °F 31.9 °F 30.9 °F 67% 29.97 in 8.0 mi WNW 19.6 mph 33.4 mph 0.02 in Rain Light Rain
7:55 PM 41.0 °F 33.5 °F 30.9 °F 67% 30.01 in 10.0 mi WNW 13.8 mph 27.6 mph 0.02 in Rain Light Rain
8:55 PM 36.0 °F 29.0 °F 30.9 °F 82% 30.05 in 5.0 mi North 9.2 mph - 0.02 in Rain Light Rain
9:38 PM 36.0 °F 30.3 °F 32.0 °F 86% 30.05 in 10.0 mi North 6.9 mph - 0.00 in   Overcast
9:55 PM 36.0 °F 31.1 °F 32.0 °F 86% 30.09 in 10.0 mi North 5.8 mph - 0.00 in   Overcast
10:18 PM 37.0 °F 31.0 °F 32.0 °F 82% 30.08 in 10.0 mi North 8.1 mph - 0.00 in Rain Light Rain
10:37 PM 36.0 °F 30.3 °F 30.9 °F 82% 30.09 in 10.0 mi North 6.9 mph - 0.00 in   Overcast
10:55 PM 36.0 °F 31.1 °F 32.0 °F 86% 30.12 in 10.0 mi NNW 5.8 mph - 0.00 in   Overcast
11:55 PM 36.0 °F 31.1 °F 30.0 °F 79% 30.15 in 10.0 mi North 5.8 mph - 0.00 in   Overcast